Weather History for Palmdale, CA

Change the Weather History Date:

Friday, August 23, 2013

  Actual Average Record
Temperature  
Mean Temperature 81 °F 80 °F  
Max Temperature 98 °F 97 °F 106 °F (1964)
Min Temperature 63 °F 64 °F 47 °F (1947)
Degree Days  
Heating Degree Days 0 0  
Month to date heating degree days 0 0  
Since 1 June heating degree days 0 7  
Since 1 July heating degree days 0 0  
Cooling Degree Days 16 15  
Month to date cooling degree days 370 389  
Year to date cooling degree days 1635 1367  
Since 1 June cooling degree days 1404 1197  
Growing Degree Days 31 (Base 50)    
Moisture  
Dew Point 29 °F    
Average Humidity 18    
Maximum Humidity 29    
Minimum Humidity 6    
Precipitation  
Precipitation 0.00 in 0.01 in 0.04 in (1939)
Month to date precipitation 0.04 0.09  
Year to date precipitation 0.99 5.51  
Since 1 July precipitation 0.13 0.19  
Snow  
Snow 0.00 in - - ()
Month to date snowfall 0.0  
Since 1 June snowfall 0.0  
Since 1 July snowfall 0.0  
Snow Depth 0.00 in    
Sea Level Pressure  
Sea Level Pressure 29.80 in    
Wind  
Wind Speed 8 mph (WSW)    
Max Wind Speed 25 mph    
Max Gust Speed 31 mph    
Visibility 10 miles    
Events      
T = Trace of Precipitation, MM = Missing Value Source: NWS Daily Summary

Daily Weather History Graph

Daily Weather History Graph

Search for Another Location

Airport:

Trip Planner

Search our weather history database for the weather conditions in past years. The results will help you decide how hot, cold, wet, or windy it might be!

Date:

Astronomy

Aug. 23, 2013 Rise Set
Actual Time 6:19 AM PDT 7:30 PM PDT
Civil Twilight 5:52 AM PDT 7:56 PM PDT
Nautical Twilight 5:21 AM PDT 8:27 PM PDT
Astronomical Twilight 4:49 AM PDT 8:59 PM PDT
Moon 9:02 PM PDT (8/23) 9:09 AM PDT (8/23)
Length of Visible Light 14h 03m
Length of Day
13h 10m
Waning Gibbous, 91% of the Moon is Illuminated
Aug 23
Waning Gibbous
Aug 28
Last Quarter
Sep 5
New
Sep 12
First Quarter
Sep 19
Full

Hourly Weather History & Observations

Time (PDT) Temp. Dew Point Humidity Pressure Visibility Wind Dir Wind Speed Gust Speed Precip Events Conditions
12:53 AM 77.0 °F 28.9 °F 17% 29.83 in 10.0 mi NW 5.8 mph - N/A   Clear
1:53 AM 79.0 °F 28.0 °F 15% 29.83 in 10.0 mi Calm Calm - N/A   Clear
2:53 AM 73.9 °F 28.0 °F 18% 29.83 in 10.0 mi South 3.5 mph - N/A   Clear
3:53 AM 72.0 °F 28.0 °F 20% 29.83 in 10.0 mi Calm Calm - N/A   Clear
4:53 AM 66.0 °F 30.0 °F 26% 29.84 in 10.0 mi Calm Calm - N/A   Clear
5:53 AM 64.9 °F 30.9 °F 28% 29.85 in 10.0 mi Calm Calm - N/A   Clear
6:53 AM 64.9 °F 30.0 °F 27% 29.85 in 10.0 mi SSW 6.9 mph - N/A   Clear
7:53 AM 73.9 °F 30.9 °F 21% 29.85 in 10.0 mi Calm Calm - N/A   Clear
8:53 AM 78.1 °F 32.0 °F 19% 29.85 in 10.0 mi Calm Calm - N/A   Clear
9:53 AM 82.0 °F 28.9 °F 14% 29.85 in 10.0 mi Calm Calm - N/A   Clear
10:53 AM 88.0 °F 25.0 °F 10% 29.83 in 10.0 mi Variable 3.5 mph - N/A   Clear
11:53 AM 91.9 °F 23.0 °F 8% 29.81 in 10.0 mi Variable 5.8 mph - N/A   Clear
12:53 PM 95.0 °F 23.0 °F 8% 29.78 in 10.0 mi Variable 3.5 mph - N/A   Clear
1:53 PM 98.1 °F 21.9 °F 7% 29.75 in 10.0 mi WSW 18.4 mph 26.5 mph N/A   Clear
2:53 PM 97.0 °F 21.9 °F 7% 29.74 in 10.0 mi West 21.9 mph 27.6 mph N/A   Clear
3:53 PM 97.0 °F 26.1 °F 8% 29.73 in 10.0 mi West 18.4 mph 31.1 mph N/A   Clear
4:53 PM 93.9 °F 25.0 °F 8% 29.73 in 10.0 mi WSW 21.9 mph 27.6 mph N/A   Clear
5:53 PM 91.9 °F 25.0 °F 9% 29.73 in 10.0 mi WSW 23.0 mph - N/A   Clear
6:53 PM 88.0 °F 25.0 °F 10% 29.74 in 10.0 mi WSW 20.7 mph - N/A   Clear
7:53 PM 82.9 °F 30.9 °F 15% 29.75 in 10.0 mi West 15.0 mph - N/A   Clear
8:53 PM 80.1 °F 41.0 °F 25% 29.78 in 10.0 mi WNW 10.4 mph - N/A   Clear
9:53 PM 77.0 °F 39.0 °F 25% 29.80 in 10.0 mi West 4.6 mph - N/A   Clear
10:53 PM 73.9 °F 39.0 °F 28% 29.80 in 10.0 mi WSW 8.1 mph - N/A   Clear
11:53 PM 73.9 °F 39.0 °F 28% 29.80 in 10.0 mi Calm Calm - N/A   Clear